[[{"header":{"parameterUnit":"m.s-1","parameterCategory":1,"la1":30.2991,"la2":30.254,"lo1":-89.0895,"lo2":-89.0444,"dy":0.0017,"dx":0.0017,"nx":28,"ny":28,"refTime":"2023-10-22T21:00:00:Z","depth":0,"parameterNumber":2,"parameterNumberName":"U-component_of_WINDS"},"data":[0,0,0,0,0,0,0,0,0,0,0,0,0,0,0,0,0,0,0,0,0,0,0,0,0,0,0,0,0,0,0,0,0,0,0,0,0,0,0,0,0,0,0,0,0,0,0,0,0,0,0,0,0,0,0,0,0,0,-7.5489,-7.5491,0,-7.5739,-7.5742,-7.5745,-7.5773,-7.577,-7.5768,-7.5766,-7.6007,-7.6016,-7.6025,0,0,0,0,0,0,0,0,0,0,0,0,0,-7.5022,-7.503,-7.5488,-7.5491,-7.5495,-7.5738,-7.5742,-7.5745,-7.5773,-7.577,-7.5767,-7.5764,-7.6005,-7.6015,-7.6025,0,0,0,0,0,0,0,0,0,0,0,0,0,-7.5243,-7.5033,-7.5488,-7.5538,-7.5545,-7.5738,-7.5742,-7.5746,-7.5774,-7.577,-7.5766,-7.5763,-7.6001,-7.6014,-7.6027,-7.6182,0,0,-7.6067,-7.6073,0,0,0,0,0,0,0,0,-7.523,-7.526,-7.5528,-7.5535,-7.5544,-7.5721,-7.5666,-7.5892,-7.5775,-7.5687,-7.5766,-7.5761,-7.5914,-7.5934,-7.5989,-7.6193,-7.6203,-7.6068,-7.6076,-7.6082,-7.6085,0,0,0,0,0,0,0,-7.5215,-7.5249,-7.5587,-7.5532,-7.5541,-7.5544,-7.5572,-7.5709,-7.5817,-7.5694,-7.5697,-7.5727,-7.5918,-7.5976,-7.5995,-7.6207,-7.6068,-7.6079,-7.6087,-7.6092,-7.655,-7.6554,0,0,0,0,0,0,-7.5192,-7.5236,-7.5579,-7.5594,-7.5375,-7.5556,-7.5586,-7.5668,-7.5816,-7.5836,-7.573,-7.5727,-7.5956,-7.5979,-7.6003,-7.6194,-7.6081,-7.6094,-7.6101,-7.6546,-7.6551,-7.6556,0,0,0,0,0,0,-7.5182,-7.5223,-7.5569,-7.5417,-7.5461,-7.5568,-7.5659,-7.5674,-7.5733,-7.5844,-7.5862,-7.577,-7.5954,-7.5985,-7.6138,-7.6203,-7.61,-7.6112,-7.6541,-7.6547,-7.6553,-7.6576,0,0,0,0,0,0,-7.5169,-7.5219,-7.5281,-7.5418,-7.5469,-7.5703,-7.5663,-7.5682,-7.5757,-7.5756,-7.5886,-7.5904,-7.5953,-7.6118,-7.6151,-7.6219,-7.6122,-7.6535,-7.6544,-7.6551,-7.657,-7.6583,-7.6594,0,0,0,0,0,-7.5152,-7.5274,-7.5284,-7.5326,-7.555,-7.5707,-7.5736,-7.5794,-7.5763,-7.5824,-7.5896,-7.59,-7.6191,-7.6134,-7.6171,-7.6243,-7.6531,-7.6541,-7.6551,-7.6565,-7.658,-7.6593,0,0,0,0,0,0,-7.5136,-7.5293,-7.5306,-7.5477,-7.558,-7.5712,-7.5791,-7.5808,-7.5917,-7.5911,-7.5974,-7.6003,-7.6153,-7.6214,-7.6147,-7.6401,-7.6358,-7.6375,-7.6356,-7.6371,-7.6383,-7.6363,-7.6133,0,0,0,0,0,-7.5154,-7.5273,-7.5402,-7.554,-7.5592,-7.5683,-7.5753,-7.579,-7.5896,-7.5937,-7.602,-7.6118,-7.6232,-7.6305,-7.6416,-7.658,-7.6607,-7.6648,-7.666,-7.6669,-7.6682,-7.6773,-7.6792,-7.6587,-7.6587,-7.6587,0,0,-7.5189,-7.529,-7.536,-7.554,-7.5623,-7.5741,-7.5718,-7.5843,-7.593,-7.5955,-7.6106,-7.617,-7.6284,-7.6444,-7.6518,-7.6498,-7.6746,-7.6682,-7.6688,-7.6696,-7.6785,-7.6804,-7.6821,-7.6594,-7.6593,-7.6592,0,0,-7.5314,-7.5403,-7.5529,-7.5615,-7.5744,-7.5804,-7.5834,-7.5966,-7.6011,-7.6165,-7.6186,-7.6288,-7.6483,-7.6564,-7.663,-7.679,-7.6797,-7.6824,-7.6883,-7.697,-7.6986,-7.7001,-7.7056,-7.7075,-7.6837,-7.6837,-7.6837,0,-7.534,-7.5523,-7.559,-7.5717,-7.5794,-7.5828,-7.5954,-7.6032,-7.6188,-7.6238,-7.6217,-7.6464,-7.6543,-7.6721,-7.6761,-7.6814,-7.6848,-7.6807,-7.698,-7.6995,-7.7009,-7.7062,-7.7083,-7.6839,-7.6839,-7.6839,-7.6839,0,-7.5548,-7.5674,-7.576,-7.5916,-7.6004,-7.6128,-7.621,-7.629,-7.632,-7.6382,-7.6537,-7.6634,-7.6766,-7.6811,-7.6839,-7.6994,-7.6978,-7.6968,-7.6924,-7.703,-7.7081,-7.7102,-7.6843,-7.6842,-7.6841,-7.6841,0,0,-7.5665,-7.5862,-7.5891,-7.5963,-7.611,-7.6206,-7.6332,-7.6466,-7.6532,-7.6639,-7.6744,-7.691,-7.6902,-7.6978,-7.7015,-7.7093,-7.7211,-7.7072,-7.7076,-7.7093,-7.7385,-7.7391,-7.7413,-7.7219,-7.7223,-7.7226,-7.7375,0,-7.5805,-7.6036,-7.6101,-7.6294,-7.641,-7.6446,-7.6556,-7.6655,-7.6717,-7.6821,-7.6887,-7.7004,-7.6985,-7.7031,-7.7109,-7.718,-7.727,-7.717,-7.7312,-7.7316,-7.728,-7.744,-7.7446,-7.7582,-7.7396,-7.7399,-7.7402,0,-7.5998,-7.6116,-7.6321,-7.6455,-7.6506,-7.6604,-7.6732,-7.6834,-7.6946,-7.6985,-7.7072,-7.7104,-7.7233,-7.7186,-7.7362,-7.7293,-7.7355,-7.7399,-7.7405,-7.7418,-7.7363,-7.7455,-7.7627,-7.7646,-7.7434,-7.7431,-7.7429,0,-7.6061,-7.627,-7.6421,-7.6481,-7.6641,-7.6709,-7.6777,-7.6888,-7.6964,-7.7076,-7.7125,-7.7248,-7.7314,-7.7407,-7.747,-7.743,-7.764,-7.7599,-7.7673,-7.7671,-7.7712,-7.7708,-7.7894,-7.7757,-7.7757,-7.7756,-7.7756,0,-7.6208,-7.6332,-7.6452,-7.6544,-7.6683,-7.6756,-7.689,-7.696,-7.7058,-7.7161,-7.7199,-7.7293,-7.7373,-7.7477,-7.7527,-7.7664,-7.7694,-7.7726,-7.7737,-7.7722,-7.7717,-7.776,-7.7751,-7.7762,-7.776,-7.7759,-7.7758,0,-7.63,-7.6386,-7.6552,-7.6693,-7.6731,-7.6827,-7.6944,-7.7033,-7.7098,-7.7228,-7.7263,-7.7363,-7.7488,-7.7562,-7.7718,-7.7752,-7.7903,-7.7911,-7.7867,-7.7871,-7.794,-7.7932,-7.8158,-7.8191,-7.8034,-7.8036,-7.8037,0,-7.6387,-7.6484,-7.6637,-7.6712,-7.6784,-7.6903,-7.6984,-7.7059,-7.714,-7.7278,-7.735,-7.7479,-7.7586,-7.7784,-7.7868,-7.7988,-7.7997,-7.8069,-7.8015,-7.7996,-7.7995,-7.7988,-7.7997,-7.8076,-7.8077,-7.8078,-7.8079,0,-7.6531,-7.657,-7.6688,-7.6822,-7.6918,-7.7025,-7.7131,-7.7189,-7.7281,-7.737,-7.7503,-7.7586,-7.775,-7.7876,-7.8004,-7.807,-7.8089,-7.8097,-7.812,-7.8103,-7.8072,-7.8087,-7.7889,-7.809,-7.8089,-7.8088,-7.8087,-7.8087,-7.6622,-7.671,-7.6833,-7.6963,-7.7052,-7.7151,-7.7242,-7.7322,-7.7435,-7.7577,-7.7614,-7.7752,-7.7862,-7.8037,-7.8107,-7.8213,-7.82,-7.8234,-7.8242,-7.8248,-7.8249,-7.8059,-7.8236,-7.8236,-7.8236,-7.8236,-7.8236,0,-7.6766,-7.6849,-7.6968,-7.7119,-7.722,-7.7237,-7.7356,-7.7438,-7.7561,-7.7665,-7.7772,-7.7923,-7.8047,-7.8143,-7.8268,-7.8335,-7.8347,-7.8365,-7.8359,-7.8373,-7.8254,-7.8221,-7.8353,-7.8353,-7.8353,-7.8353,-7.8353,-7.8353,-7.6853,-7.7004,-7.7058,-7.7252,-7.7332,-7.7473,-7.7539,-7.7629,-7.7713,-7.7882,-7.7988,-7.8052,-7.8152,-7.8286,-7.8399,-7.8424,-7.8467,-7.8483,-7.8508,-7.8395,-7.8382,-7.8369,-7.8338,-7.8493,-7.8493,-7.8618,-7.862,-7.862]},{"header":{"parameterUnit":"m.s-1","parameterCategory":1,"la1":30.2991,"la2":30.254,"lo1":-89.0895,"lo2":-89.0444,"dy":0.0017,"dx":0.0017,"nx":28,"ny":28,"refTime":"2023-10-22T21:00:00:Z","depth":0,"parameterNumber":3,"parameterNumberName":"V-component_of_WINDS"},"data":[0,0,0,0,0,0,0,0,0,0,0,0,0,0,0,0,0,0,0,0,0,0,0,0,0,0,0,0,0,0,0,0,0,0,0,0,0,0,0,0,0,0,0,0,0,0,0,0,0,0,0,0,0,0,0,0,0,0,2.5266,2.5268,0,2.5449,2.5451,2.5454,2.5484,2.5482,2.5481,2.5479,2.5658,2.5664,2.5671,0,0,0,0,0,0,0,0,0,0,0,0,0,2.4935,2.494,2.5265,2.5268,2.527,2.5449,2.5452,2.5454,2.5484,2.5482,2.548,2.5478,2.5656,2.5664,2.5671,0,0,0,0,0,0,0,0,0,0,0,0,0,2.5094,2.4942,2.5265,2.5307,2.5312,2.5449,2.5452,2.5455,2.5484,2.5482,2.548,2.5477,2.5654,2.5663,2.5672,2.5777,0,0,2.5701,2.5705,0,0,0,0,0,0,0,0,2.5085,2.5106,2.5298,2.5304,2.5311,2.5441,2.5401,2.5562,2.5485,2.5419,2.5479,2.5476,2.5587,2.5602,2.5641,2.5785,2.5793,2.5702,2.5707,2.5711,2.5714,0,0,0,0,0,0,0,2.5074,2.5098,2.5338,2.5301,2.5309,2.5314,2.5334,2.5431,2.5514,2.5424,2.5427,2.5449,2.559,2.5632,2.5646,2.5796,2.5701,2.571,2.5715,2.5719,2.6039,2.6042,0,0,0,0,0,0,2.5056,2.5089,2.5332,2.5344,2.519,2.5322,2.5345,2.5402,2.5513,2.5528,2.5451,2.545,2.5618,2.5635,2.5652,2.5787,2.5711,2.572,2.5725,2.6036,2.604,2.6043,0,0,0,0,0,0,2.5049,2.5078,2.5325,2.5217,2.5249,2.5331,2.5394,2.5407,2.5449,2.5533,2.5547,2.5479,2.5616,2.5639,2.5748,2.5794,2.5724,2.5733,2.6033,2.6037,2.6041,2.6054,0,0,0,0,0,0,2.5039,2.5075,2.5117,2.5218,2.5255,2.5419,2.5397,2.5412,2.5466,2.5466,2.5563,2.5577,2.5616,2.5733,2.5757,2.5805,2.574,2.6029,2.6035,2.604,2.605,2.6059,2.6066,0,0,0,0,0,2.5028,2.511,2.5119,2.5148,2.5309,2.5422,2.5442,2.5489,2.5469,2.5512,2.5567,2.5574,2.5784,2.5744,2.5771,2.5823,2.6027,2.6033,2.604,2.6047,2.6057,2.6066,0,0,0,0,0,0,2.5008,2.5124,2.5135,2.5253,2.5328,2.5426,2.5482,2.5497,2.5576,2.5573,2.5623,2.5645,2.5752,2.5797,2.5751,2.5932,2.5903,2.5915,2.59,2.591,2.5918,2.5907,2.5748,0,0,0,0,0,2.5018,2.5102,2.5197,2.5292,2.533,2.5399,2.5449,2.5479,2.5557,2.5588,2.565,2.5723,2.5807,2.586,2.594,2.6055,2.6079,2.6104,2.6112,2.6118,2.6129,2.6198,2.6212,2.6064,2.6064,2.6064,0,0,2.5039,2.5112,2.5161,2.529,2.5352,2.5437,2.5425,2.5514,2.5578,2.56,2.571,2.5757,2.5842,2.5956,2.6009,2.5997,2.6175,2.6126,2.613,2.6139,2.6206,2.622,2.6233,2.6069,2.6068,2.6067,0,0,2.5121,2.5184,2.5273,2.5336,2.5431,2.5477,2.5498,2.5596,2.563,2.574,2.5761,2.5834,2.5975,2.6037,2.6087,2.6196,2.6207,2.6219,2.6262,2.6328,2.634,2.6351,2.6395,2.6409,2.6229,2.6229,2.6229,0,2.5135,2.5267,2.5316,2.5407,2.5464,2.5492,2.5583,2.564,2.5754,2.5793,2.5777,2.5959,2.6017,2.6148,2.6176,2.6213,2.624,2.6211,2.6335,2.6346,2.6357,2.6399,2.6415,2.6231,2.6231,2.623,2.623,0,2.5281,2.5371,2.5431,2.5548,2.561,2.57,2.5762,2.582,2.5844,2.5891,2.6004,2.6076,2.6174,2.6206,2.6228,2.6342,2.6332,2.6325,2.6298,2.6371,2.6413,2.6429,2.6233,2.6232,2.6232,2.6231,0,0,2.5357,2.5502,2.5524,2.5579,2.5686,2.5757,2.5847,2.5948,2.5998,2.6075,2.6155,2.6274,2.6271,2.6327,2.6355,2.6413,2.6502,2.64,2.6403,2.6421,2.6637,2.6646,2.6664,2.6508,2.6511,2.6514,2.6632,0,2.5456,2.5625,2.5674,2.5815,2.5902,2.593,2.601,2.6084,2.613,2.6209,2.6258,2.6345,2.633,2.6366,2.6424,2.6479,2.6547,2.647,2.6584,2.6587,2.6568,2.6684,2.6693,2.6801,2.6647,2.665,2.6652,0,2.5595,2.5683,2.5834,2.5936,2.5974,2.6045,2.6143,2.6217,2.6302,2.6331,2.6397,2.6421,2.6517,2.6482,2.6616,2.6563,2.6611,2.6645,2.6651,2.6667,2.6628,2.6709,2.6836,2.6854,2.6676,2.6674,2.6673,0,2.5643,2.5797,2.591,2.5955,2.6074,2.6125,2.6176,2.6258,2.6317,2.64,2.6439,2.653,2.6582,2.6651,2.67,2.6669,2.6832,2.6799,2.6861,2.686,2.6898,2.6896,2.704,2.6919,2.6919,2.6919,2.6919,0,2.5753,2.5846,2.5934,2.6003,2.6109,2.6162,2.6264,2.6316,2.639,2.6469,2.6495,2.6569,2.6627,2.6707,2.6745,2.6853,2.6874,2.6902,2.6912,2.6903,2.69,2.6939,2.6935,2.6923,2.6922,2.6921,2.6921,0,2.5825,2.5888,2.6013,2.6118,2.6146,2.622,2.6308,2.6377,2.6424,2.6525,2.6551,2.6626,2.6723,2.6778,2.6898,2.6923,2.7046,2.7048,2.7019,2.7025,2.7086,2.7081,2.7264,2.7293,2.7148,2.7149,2.715,0,2.5894,2.5967,2.6081,2.6139,2.6193,2.6284,2.6345,2.64,2.6462,2.6567,2.6623,2.6722,2.6806,2.6959,2.7023,2.7116,2.7125,2.7182,2.7139,2.713,2.7133,2.713,2.714,2.7191,2.7193,2.7194,2.7195,0,2.601,2.6039,2.6128,2.6231,2.6304,2.6386,2.6466,2.651,2.6578,2.6647,2.675,2.6815,2.6941,2.704,2.7139,2.719,2.7205,2.7207,2.7228,2.7223,2.7205,2.7222,2.7046,2.7204,2.7203,2.7202,2.7202,2.7202,2.6087,2.6156,2.6249,2.6349,2.6416,2.6492,2.6564,2.6623,2.6711,2.6821,2.6846,2.6955,2.704,2.7175,2.7228,2.7314,2.7303,2.733,2.7339,2.7346,2.7352,2.7187,2.733,2.733,2.733,2.733,2.733,0,2.621,2.6272,2.6364,2.6479,2.6558,2.6568,2.6658,2.6723,2.6821,2.69,2.6983,2.7102,2.72,2.7272,2.7372,2.7426,2.7436,2.7451,2.745,2.7463,2.7353,2.7328,2.7442,2.7442,2.7442,2.7442,2.7442,2.7442,2.6284,2.6403,2.6443,2.6596,2.6656,2.6768,2.6819,2.689,2.6954,2.7088,2.7172,2.7219,2.7296,2.7402,2.7492,2.7511,2.7548,2.7564,2.7584,2.7481,2.7469,2.7458,2.7436,2.757,2.757,2.7688,2.7689,2.7689]}]]